User: anonymous   Login
Location: Unspecified
(0.0000°N, 0.0000°E)
Time: 16:03:08
(UTC+00:00)
Language:

KORONAS-FOTON - Orbit

View from above orbital plane
View from above orbital plane
View from above satellite
View from above satellite

Ground track
Ground track

The orbit data is extracted from the following two-line orbital elements,

1 33504U 09003A   15064.04705677  .00005656  00000-0  32118-3 0  9999
2 33504 082.4471 341.7991 0022347 110.1382 250.2255 15.12517590335111
Epoch (UTC): 05 March 2015 01:07:45
Eccentricity: 0.0022347
inclination: 82.4471°
perigee height: 513 km
apogee height: 544 km
right ascension of ascending node: 341.7991°
argument of perigee: 110.1382°
revolutions per day: 15.12517590
mean anomaly at epoch: 250.2255°
orbit number at epoch: 33511

The dashed part of the orbit path shows where the satellite is in the earth's shadow,  

DLR